Flag for Estonia Weather past 2 weeks in Kohtla-Järve, Estonia

Now
67 °F

Sunny.


Feels Like: 67 °F
Forecast: 47 / 61 °F
Wind: 7 mph from Southwest

Location: Johvi

Current Time: May 25, 2015 at 2:41:12 PM

Latest Report: May 25, 2015 at 2:00 PM


Visibility: 17 mi

Pressure: 29.95 "Hg

Humidity: 30%

Dew point: 34 °F

Location of Kohtla-JärveLocation

Historic Weather in Kohtla-Järve — Graph

°F

Kohtla-Järve temperature yesterday

Maximum temperature yesterday: 62 °F (at 1:00 PM)
Minimum temperature yesterday: 38 °F (at 4:00 AM)
Average temperature yesterday: 51 °F

Past Weeks' High & Low Weather Summary

 TemperatureHumidityPressure
High64 °F (May 25, 1:00 PM)100% (May 12, 4:00 AM)30.24 "Hg (May 12, 4:00 AM)
Low32 °F (May 12, 1:00 AM)22% (May 10, 3:00 PM)29.47 "Hg (May 13, 7:00 AM)
Average49 °F71%29.86 "Hg
* Reported May 10 1:00 PM — May 25 1:00 PM, Kohtla-Järve, Weather by CustomWeather, © 2015

Note: Actual official high and low records may vary slightly from our data, if they occured in-between our weather recording intervals... More about our weather records

Advertising

Kohtla-Järve weather history for previous 24 hours

 ConditionsComfort  
Time TempWeatherWind HumidityBarometerVisibility
1:00 PM
Mon, May 25
64 °FSunny.8 mph36%29.96 "Hg22 mi
12:00 PM62 °FSunny.7 mph45%29.97 "Hg18 mi
11:00 AM60 °FScattered clouds.7 mph51%29.97 "Hg17 mi
10:00 AM59 °FSunny.6 mph60%29.98 "Hg17 mi
9:00 AM55 °FSunny.5 mph65%29.99 "Hg18 mi
8:00 AM51 °FSunny.3 mph69%29.99 "Hg22 mi
7:00 AM49 °FSunny.3 mph71%29.99 "Hg22 mi
5:00 AM40 °FSunny.3 mph89%30.00 "Hg25 mi
4:00 AM44 °FOvercast.5 mph85%29.99 "Hg22 mi
3:00 AM43 °FPassing clouds.2 mph90%29.99 "Hg25 mi
2:00 AM43 °FClear.3 mph86%29.98 "Hg22 mi
1:00 AM43 °FPassing clouds.3 mph86%29.99 "Hg25 mi
11:00 PM
Sun, May 24
46 °FPassing clouds.2 mph84%29.98 "Hg25 mi
10:00 PM47 °FClear.2 mph79%29.98 "Hg31 mi
9:00 PM52 °FPassing clouds.1 mph73%29.97 "Hg31 mi
8:00 PM56 °FScattered clouds.No wind53%29.96 "Hg25 mi
7:00 PM54 °FRain showers. Overcast.1 mph64%29.97 "Hg17 mi
6:00 PM55 °FRain showers. Overcast.No wind57%29.96 "Hg22 mi
5:00 PM53 °FRain showers. Overcast.2 mph68%29.96 "Hg22 mi
4:00 PM55 °FOvercast.3 mph56%29.95 "Hg25 mi
3:00 PM60 °FOvercast.7 mph36%29.95 "Hg22 mi
2:00 PM59 °FOvercast.7 mph37%29.95 "Hg25 mi
Weather by CustomWeather, © 2015

See weather overviewHow to use our weather pages